Regional Weather Roundup
Issued by NWS Albany, NY

Home | Current Version | Previous Version | Text Only | Print | Product List | Glossary On
Versions: 1 2 3 4 5 6 7 8 9 10 11 12 13 14 15 16 17 18 19 20 21 22 23 24 25 26 27 28 29 30 31 32 33 34 35 36 37 38 39 40 41 42 43 44 45 46 47 48 49 50
800
ASUS41 KALY 201910
RWRALY

NEW YORK STATE HOURLY WEATHER ROUNDUP
NATIONAL WEATHER SERVICE ALBANY NY
300 PM EDT FRI OCT 20 2017

NOTE: "FAIR" INDICATES FEW OR NO CLOUDS BELOW 12,000 FEET WITH NO
SIGNIFICANT WEATHER AND/OR NO OBSTRUCTIONS TO VISIBILITY.

NYZ032-033-038>043-046>054-057>066-NYZ062>081-082-084-202000-
EAST


CITY           SKY/WX    TMP DP  RH WIND       PRES   REMARKS
ALBANY         MOSUNNY   69  38  32 NW9G22    30.11F
GLENS FALLS    SUNNY     69  33  26 NW13G23   30.09F
POUGHKEEPSIE   SUNNY     73  35  25 N10       30.08F
NEWBURGH       SUNNY     73  37  27 NW6       30.11S
MONTGOMERY     SUNNY     74  36  25 NW12      30.09S
WHITE PLAINS   SUNNY     71  34  25 W14       30.10S
ISLIP          SUNNY     72  33  24 W14       30.08S
NEW YORK CITY  SUNNY     73  34  23 NW13      30.09F
CENTRAL PARK   SUNNY     73  28  18 VRB5      30.12F
$$

NYZ005>009-017-018-044>046-055-056-202000-
CENTRAL


CITY           SKY/WX    TMP DP  RH WIND       PRES   REMARKS
FULTON         SUNNY     65  34  31 NW7       30.21S
SYRACUSE       MOSUNNY   67  34  29 W9        30.19F
ROME           SUNNY     67  37  33 W13       30.17S
ELMIRA         SUNNY     69  32  25 SE7       30.21S
BINGHAMTON     SUNNY     63  33  32 NW9       30.21S
MONTICELLO     SUNNY     68  33  27 NW12G21   30.16S
$$

NYZ026>034-041>043-087-202000-
NORTH


CITY           SKY/WX    TMP DP  RH WIND       PRES   REMARKS
WATERTOWN      SUNNY     61  44  53 W10       30.19S
FORT DRUM      NOT AVBL
OGDENSBURG     FAIR      67  38  35 SW5       30.14F
MASSENA        SUNNY     65  37  35 W12       30.13F
SARANAC LAKE   SUNNY     62  30  29 W8G16     30.12F
PLATTSBURGH    SUNNY     68  31  25 NW13      30.08S
$$

NYZ001>004-010>016-019>021-085-202000-
WEST


CITY           SKY/WX    TMP DP  RH WIND       PRES   REMARKS
NIAGARA FALLS  SUNNY     68  43  40 SW13      30.21F
BUFFALO        MOSUNNY   65  44  46 SW13      30.22F
DUNKIRK        SUNNY     67  49  52 NW6       30.23F
JAMESTOWN      SUNNY     66  35  31 SW5       30.26F
WELLSVILLE     SUNNY     68  29  23 VRB5      30.26F
ROCHESTER      MOSUNNY   68  38  33 W7        30.21F
PENN YAN       SUNNY     67  32  27 NW5       30.23F
$$

             KEY
       WCI = WIND CHILL INDEX
       VSB = VISIBILITY
       HX  = HEAT INDEX
$$




USA.gov is the U.S. government's official web portal to all federal, state and local government web resources and services.